Weather History for Riverside March, CA

Change the Weather History Date:

Saturday, December 7, 2013

  Actual Average Record
Temperature  
Mean Temperature 40 °F -  
Max Temperature 49 °F 63 °F 80 °F (2006)
Min Temperature 32 °F 39 °F 28 °F (1998)
Degree Days  
Heating Degree Days 24    
Moisture  
Dew Point 39 °F    
Average Humidity 84    
Maximum Humidity 94    
Minimum Humidity 69    
Precipitation  
Precipitation 0.18 in - - ()
Sea Level Pressure  
Sea Level Pressure 30.05 in    
Wind  
Wind Speed 5 mph (South)    
Max Wind Speed 15 mph    
Max Gust Speed -    
Visibility 9 miles    
Events Rain    
Averages and records for this station are not official NWS values.
T = Trace of Precipitation, MM = Missing Value Source: NWS Daily Summary

Daily Weather History Graph

Daily Weather History Graph

Search for Another Location

Airport:

Trip Planner

Search our weather history database for the weather conditions in past years. The results will help you decide how hot, cold, wet, or windy it might be!

Date:

Astronomy

Dec. 07, 2013 Rise Set
Actual Time 6:41 AM PST 4:39 PM PST
Civil Twilight 6:13 AM PST 5:07 PM PST
Nautical Twilight 5:42 AM PST 5:38 PM PST
Astronomical Twilight 5:12 AM PST 6:08 PM PST
Moon 10:38 AM PST (12/7) 10:15 PM PST (12/7)
Length of Visible Light 10h 53m
Length of Day
9h 58m
Waxing Crescent, 30% of the Moon is Illuminated
Dec 7
Waxing Crescent
Dec 9
First Quarter
Dec 17
Full
Dec 25
Last Quarter
Jan 1
New

Hourly Weather History & Observations

Time (PST) Temp. Windchill Dew Point Humidity Pressure Visibility Wind Dir Wind Speed Gust Speed Precip Events Conditions
12:55 AM 37.8 °F - 33.1 °F 83% 30.10 in 10.0 mi Calm Calm - N/A   Scattered Clouds
1:58 AM 34.3 °F - 31.1 °F 88% 30.11 in 10.0 mi Calm Calm - N/A   Scattered Clouds
2:58 AM 32.7 °F - 30.0 °F 90% 30.09 in 10.0 mi Calm Calm - N/A   Scattered Clouds
3:55 AM 35.4 °F - 32.7 °F 90% 30.05 in 10.0 mi Calm Calm - N/A   Mostly Cloudy
4:58 AM 37.2 °F - 33.6 °F 87% 30.06 in 10.0 mi ESE 2.3 mph - N/A   Overcast
5:58 AM 38.7 °F 35.2 °F 34.5 °F 85% 30.08 in 10.0 mi ESE 4.6 mph - N/A   Mostly Cloudy
6:58 AM 39.0 °F 36.8 °F 34.7 °F 84% 30.09 in 10.0 mi SSW 3.5 mph - N/A   Overcast
7:58 AM 40.5 °F 36.5 °F 35.4 °F 82% 30.09 in 10.0 mi SSE 5.8 mph - N/A   Overcast
8:58 AM 43.5 °F 38.9 °F 36.9 °F 77% 30.09 in 10.0 mi SSE 8.1 mph - N/A   Overcast
9:58 AM 46.2 °F 41.7 °F 37.2 °F 71% 30.09 in 10.0 mi SSE 9.2 mph - N/A   Overcast
10:07 AM 46.4 °F 42.4 °F 37.4 °F 71% 30.07 in 10.0 mi SSE 8.1 mph - N/A Rain Light Rain
10:12 AM 46.4 °F 43.5 °F 37.4 °F 71% 30.07 in 10.0 mi SSE 5.8 mph - N/A Rain Light Rain
10:58 AM 46.9 °F - 40.3 °F 78% 30.06 in 9.0 mi South 8.1 mph - 0.01 in Rain Light Rain
11:03 AM 46.4 °F 43.5 °F 41.0 °F 81% 30.06 in 10.0 mi South 5.8 mph - N/A Rain Light Rain
11:28 AM 46.4 °F 41.1 °F 41.0 °F 81% 30.04 in 8.0 mi South 11.5 mph - N/A Rain Light Rain
11:35 AM 46.4 °F 41.1 °F 41.0 °F 81% 30.04 in 8.0 mi South 11.5 mph - N/A Rain Light Rain
11:52 AM 46.4 °F 40.1 °F 42.8 °F 87% 30.02 in 8.0 mi SE 15.0 mph - N/A Rain Light Rain
11:58 AM 45.3 °F 39.0 °F 42.4 °F 90% 30.02 in 7.0 mi SSE 13.8 mph - 0.03 in Rain Light Rain
12:03 PM 44.6 °F 37.8 °F 42.8 °F 93% 30.02 in 6.0 mi SSE 15.0 mph - N/A Rain Light Rain
12:08 PM 44.6 °F 38.1 °F 42.8 °F 93% 30.01 in 4.0 mi SSE 13.8 mph - N/A Rain Light Rain
12:51 PM 46.4 °F 40.7 °F 44.6 °F 93% 30.01 in 3.0 mi SSE 12.7 mph - N/A Rain Light Rain
12:58 PM 45.9 °F 40.4 °F 43.7 °F 92% 30.00 in 2.5 mi SSE 11.5 mph - 0.05 in Rain Light Rain
1:03 PM 46.4 °F 41.5 °F 44.6 °F 93% 30.00 in 4.0 mi SSE 10.4 mph - N/A Rain Light Rain
1:58 PM 47.1 °F - 45.5 °F 94% 30.01 in 4.0 mi Calm Calm - 0.08 in Rain Light Rain
2:03 PM 48.2 °F - 44.6 °F 87% 29.99 in 7.0 mi SW 2.3 mph - N/A Rain Light Rain
2:40 PM 48.2 °F - 46.4 °F 93% 29.98 in 10.0 mi SE 4.6 mph - N/A   Overcast
2:58 PM 48.6 °F - 44.2 °F 85% 30.01 in 10.0 mi South 4.6 mph - 0.01 in   Mostly Cloudy
3:20 PM 48.2 °F - 44.6 °F 87% 29.99 in 10.0 mi SW 2.3 mph - N/A   Mostly Cloudy
3:58 PM 49.1 °F - 44.4 °F 84% 30.00 in 10.0 mi WSW 2.3 mph - N/A   Mostly Cloudy
4:58 PM 46.9 °F - 41.0 °F 80% 30.01 in 10.0 mi WSW 4.6 mph - N/A   Scattered Clouds
5:58 PM 45.9 °F 41.7 °F 36.1 °F 69% 30.01 in 10.0 mi WSW 8.1 mph - N/A   Scattered Clouds
6:58 PM 44.8 °F 43.3 °F 35.6 °F 70% 30.06 in 10.0 mi SSW 3.5 mph - N/A   Clear
7:58 PM 41.2 °F 39.2 °F 35.8 °F 81% 30.07 in 10.0 mi East 3.5 mph - N/A   Clear
8:58 PM 40.8 °F - 34.9 °F 79% 30.06 in 10.0 mi Calm Calm - N/A   Clear
9:58 PM 37.8 °F - 34.5 °F 88% 30.08 in 10.0 mi South 2.3 mph - N/A   Clear
10:58 PM 37.9 °F - 34.5 °F 87% 30.09 in 10.0 mi Calm Calm - N/A   Scattered Clouds
11:58 PM 34.3 °F - 32.5 °F 93% 30.11 in 10.0 mi WNW 2.3 mph - N/A   Clear